Date,TemperatureHighF,TemperatureAvgF,TemperatureLowF,DewpointHighF,DewpointAvgF,DewpointLowF,HumidityHigh,HumidityAvg,HumidityLow,PressureMaxIn,PressureMinIn,WindSpeedMaxMPH,WindSpeedAvgMPH,GustSpeedMaxMPH,PrecipitationSumIn
2013-1-1,45.3,41.9,38.6,43.0,39.8,36.0,94,92,86,29.90,29.27,19,6,0,0.11
2013-1-2,52.8,48.2,41.9,52.0,47.3,40.0,98,96,92,30.08,29.89,17,5,0,0.46
2013-1-3,52.0,51.0,49.8,51.0,49.7,49.0,97,95,91,30.39,30.07,22,8,0,0.04
2013-1-4,51.4,49.2,47.7,49.0,47.8,47.0,97,94,86,30.44,30.38,10,4,0,0.00
2013-1-5,50.7,49.3,47.4,49.0,47.9,46.0,97,94,90,30.39,30.23,23,6,0,0.09
2013-1-6,49.1,45.3,41.6,49.0,44.7,40.0,98,97,94,30.39,30.14,10,1,0,0.22
2013-1-7,50.5,49.0,48.2,50.0,48.4,48.0,99,98,98,30.14,29.94,15,3,0,0.48
2013-1-8,51.1,46.2,42.2,51.0,43.8,40.0,98,91,87,30.13,29.93,12,4,0,0.36
2013-1-9,47.1,41.6,35.2,44.0,40.2,34.0,98,94,89,30.12,30.02,8,2,0,0.01
2013-1-10,36.5,33.8,30.7,36.0,33.3,30.0,99,98,96,30.01,29.90,6,1,0,0.01
2013-1-11,42.5,39.0,36.6,42.0,38.4,36.0,99,97,93,29.96,29.89,5,1,0,0.01
2013-1-12,39.8,36.7,34.1,37.0,35.0,33.0,96,93,89,30.07,29.88,7,2,0,0.02
2013-1-13,38.6,35.9,33.5,38.0,35.0,32.0,98,96,93,30.07,29.93,9,1,0,0.42
2013-1-14,41.4,36.5,32.2,41.0,34.4,30.0,99,92,82,29.93,29.71,12,4,0,0.10
2013-1-15,39.2,33.4,27.6,35.0,31.2,26.0,97,92,82,29.86,29.78,8,2,0,0.00
2013-1-16,34.1,31.4,27.5,31.0,29.1,26.0,96,91,87,29.91,29.78,5,2,0,0.00
2013-1-17,37.3,34.6,32.9,32.0,30.1,29.0,88,83,74,29.93,29.70,14,4,0,0.00
2013-1-18,36.1,34.1,30.2,32.0,27.3,24.0,84,76,71,29.70,29.45,18,6,0,0.01
2013-1-19,38.9,34.7,32.5,34.0,30.5,27.0,91,85,76,29.66,29.48,11,4,0,0.00
2013-1-20,35.1,34.1,32.6,31.0,29.8,28.0,92,84,78,29.65,29.47,10,4,0,0.00
2013-1-21,36.1,35.0,33.8,34.0,32.0,30.0,95,89,83,29.47,29.38,16,7,0,0.02
2013-1-22,36.8,33.6,29.6,33.0,31.1,28.0,96,90,83,29.78,29.42,8,3,0,0.06
2013-1-23,35.9,33.8,30.4,33.0,32.0,29.0,97,93,87,29.90,29.77,9,2,0,0.01
2013-1-24,39.2,35.7,33.4,35.0,32.9,31.0,96,89,75,30.00,29.89,13,2,0,0.02
2013-1-25,38.9,35.5,33.5,36.0,33.5,32.0,97,92,85,29.89,29.33,18,4,0,0.41
2013-1-26,49.5,42.0,37.1,48.0,39.6,34.0,98,91,83,29.53,28.87,14,6,0,0.68
2013-1-27,49.9,42.7,39.5,49.0,40.1,36.0,97,90,84,29.20,28.74,18,9,0,0.20
2013-1-28,47.6,43.8,40.2,45.0,41.2,37.0,95,90,83,29.30,28.85,24,10,0,0.39
2013-1-29,52.5,47.1,45.2,51.0,43.6,38.0,97,87,74,29.31,28.91,26,10,0,0.35
2013-1-30,47.3,44.0,40.6,43.0,39.6,36.0,95,84,70,29.63,29.11,26,10,0,0.17
2013-1-31,47.2,43.9,39.1,42.0,39.8,37.0,95,85,71,29.61,29.14,30,10,0,0.40
2013-2-1,45.0,40.6,33.0,42.0,37.0,29.0,93,87,75,29.80,29.33,17,5,0,0.13
2013-2-2,42.7,36.7,30.3,38.0,32.2,27.0,91,83,72,30.16,29.81,12,4,0,0.02
2013-2-3,49.7,46.4,39.0,48.0,44.5,37.0,100,93,87,29.99,29.53,26,10,0,0.37
2013-2-4,48.1,40.0,34.3,46.0,36.6,32.0,94,87,79,29.58,29.33,25,14,0,0.23
2013-2-5,44.4,39.6,34.2,43.0,36.1,31.0,96,87,76,29.59,29.05,25,11,0,0.33
2013-2-6,45.2,38.4,30.8,34.0,30.9,28.0,93,75,60,30.12,29.61,18,7,0,0.00
2013-2-7,42.5,38.2,31.1,37.0,34.8,28.0,94,87,78,30.12,29.96,12,2,0,0.00
2013-2-8,44.9,41.2,36.9,40.0,37.8,35.0,96,88,77,30.15,30.04,15,4,0,0.06
2013-2-9,41.6,40.4,38.9,41.0,39.7,38.0,100,97,96,30.06,29.73,6,2,0,0.10
2013-2-10,38.8,35.9,33.8,38.0,35.2,33.0,98,97,94,29.73,29.32,10,5,0,0.38
2013-2-11,42.9,37.9,34.3,37.0,33.7,30.0,95,85,69,29.88,29.39,12,4,0,0.02
2013-2-12,39.4,35.6,32.8,33.0,30.9,30.0,89,83,73,30.02,29.89,10,2,0,0.00
2013-2-13,45.9,37.6,33.0,45.0,35.8,30.0,98,93,80,30.00,29.48,11,3,0,1.46
2013-2-14,48.2,44.6,43.2,45.0,42.3,41.0,95,92,88,29.81,29.51,13,6,0,0.16
2013-2-15,51.6,43.1,32.7,44.0,39.9,32.0,96,88,74,30.06,29.82,11,3,0,0.03
2013-2-16,47.0,41.9,33.9,47.0,40.9,33.0,98,96,89,30.07,30.03,7,1,0,0.06
2013-2-17,49.3,42.6,30.8,43.0,38.5,29.0,95,85,73,30.05,29.99,13,3,0,0.00
2013-2-18,48.1,35.0,27.7,38.0,31.7,26.0,97,88,67,30.09,30.02,6,1,0,0.01
2013-2-19,47.8,35.0,23.5,38.0,31.5,22.0,97,88,61,30.09,30.04,12,3,0,0.01
2013-2-20,42.5,37.7,29.8,38.0,34.6,27.0,97,89,79,30.25,30.08,9,3,0,0.00
2013-2-21,39.4,33.0,26.3,31.0,27.5,24.0,93,80,66,30.27,30.22,14,4,0,0.00
2013-2-22,37.1,34.4,32.7,28.0,26.4,24.0,83,73,68,30.27,30.23,8,2,0,0.00
2013-2-23,42.0,33.8,28.4,32.0,28.8,25.0,92,82,64,30.36,30.23,6,1,0,0.00
2013-2-24,45.5,35.3,27.4,37.0,31.7,26.0,96,87,69,30.44,30.35,7,1,0,0.01
2013-2-25,47.7,36.0,26.6,38.0,32.1,25.0,97,86,66,30.57,30.43,8,2,0,0.00
2013-2-26,50.4,40.6,30.6,40.0,35.4,29.0,94,82,63,30.64,30.57,11,4,0,0.01
2013-2-27,47.8,35.7,30.0,44.0,34.5,29.0,98,95,81,30.65,30.56,10,2,0,0.01
2013-2-28,55.1,40.7,31.8,46.0,38.4,31.0,99,92,68,30.56,30.46,3,1,0,0.01
2013-3-1,52.2,41.7,30.2,42.0,36.7,29.0,94,83,61,30.50,30.41,7,1,0,0.00
2013-3-2,54.7,41.4,29.6,47.0,39.0,28.0,98,91,73,30.40,30.22,13,3,0,0.01
2013-3-3,46.5,43.2,38.3,43.0,40.5,35.0,97,90,79,30.22,30.05,6,1,0,0.00
2013-3-4,46.0,39.2,30.8,39.0,35.5,29.0,94,87,71,30.05,29.70,6,1,0,0.00
2013-3-5,51.0,37.8,28.6,40.0,33.4,28.0,97,85,59,29.70,29.59,6,2,0,0.00
2013-3-6,43.3,40.4,36.4,39.0,37.1,34.0,95,88,83,29.64,29.57,18,7,0,0.04
2013-3-7,45.5,42.3,40.3,45.0,40.9,39.0,97,94,89,29.57,29.44,18,7,0,0.36
2013-3-8,42.3,41.0,39.4,40.0,38.4,38.0,94,90,87,29.63,29.46,14,8,0,0.07
2013-3-9,41.0,39.2,36.9,38.0,35.7,30.0,92,87,75,29.84,29.63,27,10,0,0.02
2013-3-10,40.2,34.5,27.5,35.0,29.4,24.0,92,81,71,30.07,29.84,18,6,0,0.02
2013-3-11,38.0,30.7,24.8,25.0,22.1,19.0,92,71,53,30.12,30.07,18,6,0,0.02
2013-3-12,46.2,33.4,22.7,37.0,27.1,18.0,87,78,58,30.12,29.88,12,3,0,0.00
2013-3-13,47.7,39.1,33.8,33.0,29.5,24.0,86,70,44,29.89,29.85,12,6,0,0.00
2013-3-15,44.5,37.4,32.7,40.0,34.9,32.0,96,90,83,29.34,29.33,4,1,0,0.24
2013-3-16,42.0,37.2,32.7,38.0,35.6,32.0,97,94,86,29.33,29.18,13,2,0,0.13
2013-3-17,42.7,37.9,34.4,41.0,36.8,33.0,97,95,90,29.21,29.08,8,3,0,0.11
2013-3-18,42.6,38.1,34.0,39.0,35.3,31.0,97,89,81,29.49,29.21,21,7,0,0.04
2013-3-19,39.9,36.4,34.1,35.0,32.9,30.0,94,87,80,29.58,29.47,29,10,0,0.03
2013-3-20,41.2,36.8,31.3,35.0,32.9,29.0,94,86,73,29.98,29.59,12,4,0,0.00
2013-3-21,42.1,34.5,27.9,32.0,28.5,26.0,93,79,62,30.02,29.89,17,6,0,0.00
2013-3-22,37.0,34.9,33.2,33.0,31.3,29.0,95,87,73,29.91,29.82,19,8,0,0.09
2013-3-23,36.1,34.3,33.1,32.0,29.7,26.0,95,83,74,30.10,29.92,17,8,0,0.07
2013-3-24,38.8,35.5,33.3,28.0,26.4,25.0,76,70,60,30.23,30.10,20,10,0,0.00
2013-3-25,39.6,35.4,32.0,28.0,26.9,25.0,80,71,62,30.24,30.19,18,7,0,0.00
2013-3-26,40.5,35.0,29.7,31.0,27.7,25.0,91,75,58,30.20,30.10,12,5,0,0.00
2013-3-27,42.5,34.6,28.4,34.0,29.2,25.0,93,81,56,30.12,30.03,14,5,0,0.01
2013-3-28,42.5,35.6,28.8,33.0,28.3,25.0,100,76,54,30.06,30.00,12,4,0,0.01
2013-3-29,43.7,35.0,27.9,33.0,28.5,24.0,94,78,56,30.00,29.87,12,3,0,0.00
2013-3-30,43.0,35.9,25.2,32.0,27.7,23.0,95,74,53,29.96,29.91,10,2,0,0.00
2013-3-31,43.4,36.8,29.4,30.0,26.0,23.0,88,67,46,29.97,29.91,15,4,0,0.00
2013-4-1,46.1,36.1,27.3,28.0,26.1,23.0,88,69,46,30.04,29.93,15,4,0,0.00
2013-4-2,47.2,36.8,24.9,32.0,27.9,22.0,93,72,50,30.20,30.04,12,4,0,0.00
2013-4-3,50.4,36.8,25.5,36.0,28.8,24.0,96,76,45,30.26,30.20,10,2,0,0.01
2013-4-4,49.3,39.2,29.0,36.0,29.8,27.0,92,71,44,30.25,30.18,10,3,0,0.00
2013-4-5,51.7,40.7,29.2,33.0,30.5,26.0,93,70,43,30.23,30.18,11,2,0,0.00
2013-4-6,50.2,38.8,23.3,39.0,31.9,22.0,96,78,51,30.25,30.16,9,2,0,0.00
2013-4-7,51.1,40.9,30.2,38.0,34.9,28.0,93,80,58,30.16,29.92,11,3,0,0.00
2013-4-8,45.7,39.5,34.0,35.0,30.8,26.0,89,72,55,29.92,29.68,11,5,0,0.00
2013-4-9,50.0,40.3,32.7,34.0,29.2,26.0,86,66,42,29.67,29.59,12,5,0,0.00
2013-4-10,50.6,41.5,33.9,39.0,34.9,32.0,93,78,54,29.66,29.53,9,3,0,0.00
2013-4-11,43.8,39.8,34.9,42.0,37.8,34.0,96,92,88,29.53,29.35,11,4,0,0.34
2013-4-12,44.7,39.9,35.6,43.0,38.6,34.0,97,95,92,29.61,29.33,10,3,0,0.33
2013-4-13,53.4,46.1,40.2,50.0,41.8,39.0,97,86,62,29.68,29.34,16,4,0,0.13
2013-4-14,54.6,51.4,47.5,51.0,48.3,47.0,97,89,79,29.41,29.32,25,10,0,0.29
2013-4-15,55.9,50.7,46.6,50.0,46.9,45.0,95,87,74,29.69,29.41,28,9,0,0.07
2013-4-16,54.9,49.2,46.0,48.0,42.9,37.0,91,79,59,29.81,29.28,24,11,0,0.13
2013-4-17,51.7,46.6,39.3,50.0,44.5,38.0,97,92,78,29.79,29.05,26,6,0,0.83
2013-4-18,54.3,47.6,43.7,47.0,43.8,40.0,97,87,71,29.88,29.04,27,10,0,0.14
2013-4-19,55.6,47.0,39.4,41.0,38.5,35.0,92,74,51,30.38,29.89,15,6,0,0.00
2013-4-20,54.5,48.1,40.7,45.0,42.6,38.0,94,81,65,30.37,30.07,18,7,0,0.00
2013-4-21,52.2,47.2,43.9,46.0,43.4,40.0,95,87,73,30.07,29.82,21,8,0,0.22
2013-4-22,54.3,47.7,43.4,50.0,44.1,41.0,97,87,76,29.81,29.59,30,10,0,0.02
2013-4-23,56.0,50.6,46.5,46.0,43.7,42.0,91,77,64,30.01,29.72,24,9,0,0.01
2013-4-24,55.3,48.7,43.0,51.0,42.7,35.0,97,81,53,30.18,29.84,21,7,0,0.32
2013-4-25,54.0,45.1,40.9,46.0,40.7,38.0,94,85,66,30.17,30.00,18,4,0,0.12
2013-4-26,53.2,44.4,38.3,44.0,38.8,35.0,93,81,59,30.01,29.84,23,8,0,0.14
2013-4-27,55.4,45.5,36.4,40.0,35.3,32.0,89,69,46,30.10,29.93,11,5,0,0.00
2013-4-28,52.6,44.8,39.8,46.0,41.6,37.0,96,88,75,29.94,29.59,24,9,0,0.31
2013-4-29,53.2,46.1,41.0,45.0,40.4,38.0,93,81,60,30.08,29.60,25,12,0,0.09
2013-4-30,54.5,46.4,32.8,42.0,36.9,31.0,95,72,45,30.26,30.09,10,4,0,0.00
2013-5-1,56.3,47.9,39.0,45.0,40.1,34.0,92,76,46,30.23,30.07,15,6,0,0.02
2013-5-2,53.1,43.9,30.7,46.0,39.2,29.0,95,84,65,30.23,29.96,13,4,0,0.03
2013-5-3,50.7,48.1,41.9,49.0,46.5,40.0,96,94,92,29.96,29.64,18,8,0,0.41
2013-5-4,51.1,45.7,37.6,45.0,41.1,35.0,94,84,75,29.85,29.71,14,5,0,0.00
2013-5-5,57.1,52.0,46.4,54.0,49.1,44.0,96,90,84,29.99,29.85,15,4,0,0.02
2013-5-6,54.1,51.2,47.3,51.0,48.8,45.0,95,92,87,30.00,29.94,10,4,0,0.05
2013-5-7,70.9,55.9,36.6,54.0,46.0,36.0,99,73,40,30.01,29.76,8,2,0,0.00
2013-5-8,60.6,54.0,49.1,53.0,47.5,43.0,90,79,54,29.76,29.38,15,6,0,0.01
2013-5-9,52.5,47.9,44.7,46.0,43.4,41.0,93,84,71,29.46,29.26,22,6,0,0.10
2013-5-10,54.2,47.5,42.8,49.0,44.6,41.0,94,89,76,29.59,29.36,15,4,0,0.16
2013-5-11,49.7,46.5,42.7,48.0,44.6,41.0,97,93,85,29.73,29.45,21,9,0,0.56
2013-5-12,51.9,46.7,42.1,51.0,44.7,38.0,96,92,84,29.76,29.56,16,7,0,0.26
2013-5-13,49.1,43.8,39.2,44.0,40.0,37.0,93,87,75,29.60,29.42,17,9,0,0.47
2013-5-14,54.3,45.8,40.2,45.0,41.4,38.0,95,85,66,29.42,29.33,20,7,0,0.46
2013-5-15,56.6,46.9,37.2,47.0,40.0,35.0,95,78,51,29.38,29.29,19,7,0,0.03
2013-5-16,58.9,48.9,37.2,43.0,40.1,35.0,96,73,50,29.63,29.37,11,3,0,0.00
2013-5-17,64.1,52.7,41.2,44.0,41.0,38.0,94,67,39,29.82,29.63,9,3,0,0.00
2013-5-18,57.1,51.9,47.1,56.0,50.1,42.0,97,93,73,29.82,29.64,15,3,0,0.80
2013-5-19,60.2,54.6,50.3,55.0,52.2,49.0,97,91,82,29.95,29.75,7,2,0,0.01
2013-5-20,72.0,59.5,53.0,63.0,54.8,50.0,95,85,71,29.98,29.89,19,4,0,0.00
2013-5-21,60.3,53.4,46.7,50.0,46.9,44.0,93,79,64,30.07,29.98,20,7,0,0.00
2013-5-22,57.1,49.6,40.9,45.0,41.5,37.0,92,75,55,30.09,30.00,30,10,0,0.02
2013-5-23,54.5,45.9,39.4,40.0,37.2,35.0,87,73,51,30.01,29.91,20,10,0,0.00
2013-5-24,61.9,51.6,40.6,42.0,37.9,34.0,87,61,41,30.16,29.91,12,5,0,0.00
2013-5-25,60.9,49.6,33.8,46.0,40.4,32.0,96,73,49,30.16,30.09,12,3,0,0.00
2013-5-26,60.6,51.7,40.7,51.0,46.6,38.0,94,83,67,30.09,29.68,11,3,0,0.01
2013-5-27,55.7,50.6,46.4,51.0,47.6,44.0,96,89,75,29.67,29.36,18,6,0,0.72
2013-5-28,57.7,50.7,39.4,51.0,45.9,38.0,98,84,66,29.72,29.45,11,2,0,0.02
2013-5-29,69.2,57.9,41.6,55.0,49.2,40.0,95,74,56,29.89,29.72,9,3,0,0.00
2013-5-30,72.9,61.5,53.3,55.0,49.4,44.0,81,65,49,30.03,29.87,11,4,0,0.00
2013-5-31,62.2,53.2,43.5,53.0,46.6,41.0,95,79,57,30.16,30.03,15,5,0,0.00
2013-6-1,60.4,50.8,41.8,53.0,44.7,39.0,96,80,56,30.29,30.16,15,5,0,0.01
2013-6-2,62.5,52.2,36.2,50.0,44.6,35.0,97,77,57,30.40,30.28,10,3,0,0.00
2013-6-3,73.4,58.1,49.0,60.0,53.6,47.0,96,86,63,30.45,30.40,7,2,0,0.04
2013-6-4,73.2,61.3,48.2,56.0,52.4,47.0,98,75,51,30.44,30.26,12,3,0,0.00
2013-6-5,72.2,59.2,50.2,59.0,54.0,48.0,94,83,58,30.26,30.09,9,2,0,0.07
2013-6-6,72.6,59.1,44.5,59.0,51.5,43.0,97,78,50,30.21,30.13,7,2,0,0.00
2013-6-7,75.2,59.6,42.3,56.0,50.1,41.0,97,73,45,30.26,30.21,7,2,0,0.00
2013-6-8,75.7,62.6,45.4,56.0,50.3,43.0,93,67,42,30.26,30.06,9,3,0,0.00
2013-6-9,73.4,59.3,46.9,57.0,51.1,45.0,96,76,48,30.08,29.91,11,3,0,0.00
2013-6-10,63.1,56.7,50.0,55.0,51.3,47.0,94,82,70,29.95,29.83,10,4,0,0.00
2013-6-11,58.8,54.7,49.5,56.0,51.6,47.0,95,89,75,29.84,29.60,8,3,0,0.22
2013-6-12,64.2,56.3,50.1,58.0,53.1,48.0,97,89,70,29.60,29.55,12,4,0,0.25
2013-6-13,61.9,53.3,43.5,51.0,47.7,42.0,97,82,64,29.76,29.53,12,5,0,0.00
2013-6-14,64.1,55.1,43.2,54.0,49.3,41.0,97,81,65,29.77,29.48,16,4,0,0.23
2013-6-15,56.7,50.5,47.0,53.0,48.7,45.0,96,93,86,29.56,29.30,21,8,0,0.95
2013-6-16,66.2,57.3,49.5,54.0,51.2,48.0,96,81,60,29.94,29.56,9,3,0,0.00
2013-6-17,70.8,59.9,48.4,58.0,52.7,47.0,96,78,54,30.01,29.94,6,1,0,0.00
2013-6-18,69.5,60.5,54.0,57.0,53.8,50.0,95,80,52,29.97,29.89,11,3,0,0.00
2013-6-19,66.8,57.4,46.7,53.0,49.8,44.0,95,77,54,29.98,29.92,11,3,0,0.00
2013-6-20,72.5,59.2,45.4,58.0,51.9,43.0,96,79,48,29.98,29.74,7,2,0,0.00
2013-6-21,67.2,59.4,55.6,57.0,53.3,49.0,95,81,56,29.75,29.53,15,4,0,0.03
2013-6-22,62.5,55.3,51.5,55.0,52.3,50.0,97,90,75,29.52,29.25,19,5,0,0.31
2013-6-23,58.9,54.7,50.7,55.0,51.1,47.0,96,88,76,29.93,29.36,23,11,0,0.04
2013-6-24,61.4,54.1,46.6,49.0,46.8,44.0,91,77,61,30.22,29.93,14,7,0,0.00
2013-6-25,63.9,55.7,43.2,54.0,49.7,41.0,94,81,64,30.35,30.22,12,3,0,0.00
2013-6-26,64.4,56.2,49.4,52.0,49.2,45.0,94,78,61,30.41,30.36,14,6,0,0.00
2013-6-27,58.5,53.9,50.4,57.0,51.4,46.0,96,91,81,30.38,30.12,12,4,0,0.17
2013-6-28,59.6,55.6,50.7,58.0,53.6,47.0,97,93,81,30.12,29.91,19,6,0,0.39
2013-6-29,58.0,54.4,49.3,55.0,51.2,47.0,95,89,82,30.11,30.05,13,4,0,0.01
2013-6-30,59.4,56.1,51.2,56.0,52.9,48.0,95,89,82,30.08,29.83,17,7,0,0.09
2013-7-1,62.3,54.7,49.9,52.0,48.4,45.0,93,80,58,29.87,29.81,12,5,0,0.02
2013-7-2,56.5,53.0,46.9,55.0,51.3,45.0,97,94,87,29.82,29.38,17,4,0,0.45
2013-7-3,64.5,57.7,53.8,57.0,54.2,53.0,98,88,70,29.75,29.40,12,3,0,0.02
2013-7-4,62.1,58.4,54.2,59.0,53.8,49.0,97,85,70,30.10,29.66,24,8,0,0.28
2013-7-5,66.0,58.3,53.3,57.0,53.3,49.0,95,84,68,30.31,30.10,12,4,0,0.01
2013-7-6,66.4,57.8,45.0,57.0,53.2,44.0,98,85,67,30.38,30.26,18,4,0,0.01
2013-7-7,68.1,61.0,57.4,61.0,58.3,56.0,97,91,69,30.50,30.38,10,3,0,0.01
2013-7-11,76.3,69.4,55.9,66.0,62.4,55.0,95,79,68,30.29,30.21,8,3,0,0.00
2013-7-12,81.6,68.2,53.8,68.0,60.7,53.0,98,79,53,30.23,30.17,10,2,0,0.00
2013-7-13,70.2,63.2,53.2,63.0,57.2,50.0,96,81,60,30.27,30.20,15,5,0,0.00
2013-7-14,67.9,59.3,49.4,58.0,53.0,47.0,95,80,64,30.25,30.16,11,4,0,0.00
2013-7-15,69.7,58.6,50.8,61.0,54.9,49.0,96,88,64,30.18,30.15,11,3,0,0.00
2013-7-16,71.4,67.5,63.0,62.0,60.8,58.0,92,79,72,30.19,30.16,10,4,0,0.00
2013-7-17,75.7,65.6,54.7,62.0,58.2,53.0,96,79,57,30.29,30.20,10,2,0,0.00
2013-7-18,77.8,65.3,56.3,68.0,60.9,55.0,96,86,70,30.33,30.29,11,3,0,0.00
2013-7-19,86.4,76.1,53.9,65.0,60.2,53.0,98,61,38,30.33,30.24,9,4,0,0.00
2013-7-20,81.7,74.6,62.4,67.0,63.1,57.0,83,68,57,30.21,30.17,6,1,0,0.00
2013-7-21,76.4,64.2,58.2,62.0,56.6,53.0,91,77,58,30.21,30.04,12,5,0,0.00
2013-7-22,74.6,68.3,60.4,63.0,60.7,57.0,90,77,67,30.02,29.91,15,6,0,0.00
2013-7-23,68.6,63.6,59.8,67.0,61.4,58.0,96,92,87,29.91,29.80,19,3,0,0.31
2013-7-24,74.6,65.2,55.0,64.0,59.7,54.0,98,83,64,29.83,29.80,14,2,0,0.01
2013-7-25,75.3,63.9,58.3,66.0,60.8,57.0,97,90,67,29.82,29.73,6,1,0,0.33
2013-7-26,72.4,64.7,56.9,64.0,60.2,55.0,97,86,67,29.79,29.75,10,3,0,0.17
2013-7-27,74.1,63.5,51.1,63.0,57.3,50.0,98,81,59,29.79,29.59,7,1,0,0.00
2013-7-28,67.6,61.9,56.3,62.0,59.3,55.0,97,91,78,29.58,29.49,12,3,0,0.46
2013-7-29,71.7,61.6,52.5,63.0,58.1,51.0,98,88,71,29.70,29.56,10,3,0,0.04
2013-7-30,67.6,59.2,49.3,58.0,55.2,47.0,98,86,71,29.75,29.70,13,4,0,0.01
2013-7-31,67.6,59.9,51.4,57.0,54.1,50.0,96,82,59,29.82,29.67,9,2,0,0.08
2013-8-1,65.8,61.1,57.8,65.0,60.3,57.0,98,97,94,29.67,29.55,12,2,0,0.73
2013-8-2,71.1,65.1,60.7,62.0,59.7,56.0,94,83,65,29.55,29.46,21,7,0,0.01
2013-8-3,66.3,59.7,55.0,57.0,54.8,53.0,94,84,68,29.80,29.51,19,7,0,0.00
2013-8-4,68.7,60.4,49.9,58.0,55.1,48.0,95,83,65,29.85,29.78,11,4,0,0.00
2013-8-5,68.0,57.1,49.1,59.0,52.9,48.0,97,86,67,29.83,29.72,18,3,0,0.01
2013-8-6,67.2,58.5,50.0,56.0,52.4,48.0,94,81,60,29.91,29.84,11,3,0,0.00
2013-8-7,71.3,59.8,50.4,61.0,55.2,49.0,97,86,63,30.01,29.90,7,1,0,0.00
2013-8-8,69.1,55.6,45.9,60.0,51.6,45.0,98,87,60,30.00,29.84,13,1,0,0.00
2013-8-9,64.9,59.0,54.9,58.0,54.8,51.0,97,86,67,30.09,29.81,20,7,0,0.02
2013-8-10,63.5,57.0,52.9,56.0,52.6,51.0,94,85,71,30.10,29.94,9,3,0,0.03
2013-8-11,64.4,56.8,52.5,56.0,52.9,51.0,96,87,68,29.93,29.83,15,6,0,0.12
2013-8-12,63.6,58.6,53.0,56.0,52.8,49.0,94,81,69,30.00,29.80,16,6,0,0.02
2013-8-13,66.7,55.7,44.3,55.0,50.2,43.0,97,83,61,30.10,30.00,10,2,0,0.01
2013-8-14,68.1,59.9,54.5,61.0,57.4,53.0,97,91,73,30.09,29.88,10,3,0,0.20
2013-8-15,66.2,61.7,58.8,63.0,60.7,58.0,98,96,90,29.88,29.69,12,5,0,0.23
2013-8-16,65.8,59.4,53.9,61.0,56.0,53.0,97,88,72,29.82,29.71,10,4,0,0.02
2013-8-17,67.9,59.5,54.1,63.0,56.6,52.0,97,90,78,29.75,29.36,19,8,0,0.45
2013-8-18,63.0,56.6,53.3,57.0,51.7,49.0,92,84,69,29.76,29.43,16,7,0,0.05
2013-8-19,66.3,58.3,53.6,57.0,53.1,50.0,91,83,65,30.13,29.76,18,6,0,0.00
2013-8-20,66.2,59.6,55.6,60.0,56.4,53.0,96,89,78,30.19,30.07,11,3,0,0.10
2013-8-21,68.4,61.8,58.3,63.0,59.7,57.0,98,92,80,30.07,29.96,15,4,0,0.40
2013-8-22,71.4,62.0,57.2,64.0,59.3,56.0,98,91,74,30.06,29.93,10,2,0,0.00
2013-8-23,68.4,60.4,55.4,63.0,58.0,55.0,98,92,79,29.93,29.81,8,3,0,0.02
2013-8-24,67.8,59.8,47.2,58.0,54.1,45.0,96,82,60,29.91,29.85,12,3,0,0.01
2013-8-25,73.4,59.8,39.7,60.0,52.2,39.0,98,78,54,30.11,29.96,7,2,0,0.01
2013-8-26,66.7,57.2,46.2,59.0,53.6,45.0,98,88,74,30.13,30.06,7,2,0,0.00
2013-8-27,65.3,57.9,50.3,61.0,55.3,48.0,96,91,81,30.16,30.04,14,3,0,0.00
2013-8-28,64.4,52.8,40.0,54.0,48.1,39.0,100,85,64,30.18,30.04,9,2,0,0.00
2013-8-29,62.5,58.7,55.2,59.0,56.7,54.0,96,93,87,30.03,29.96,10,4,0,0.04
2013-8-30,63.2,57.3,51.1,61.0,55.1,45.0,97,92,79,30.05,29.82,16,6,0,0.02
2013-8-31,63.0,55.9,50.1,52.0,48.4,46.0,91,77,57,30.26,30.06,17,6,0,0.00
2013-9-1,59.8,58.2,57.1,57.0,54.3,53.0,95,87,78,30.20,30.13,17,8,0,0.05
2013-9-2,62.6,60.3,58.2,61.0,59.1,57.0,98,95,91,30.23,30.10,24,8,0,0.13
2013-9-3,66.8,61.9,57.6,61.0,58.7,56.0,96,89,69,30.21,30.13,14,4,0,0.00
2013-9-4,67.1,58.2,50.7,58.0,54.3,49.0,98,87,72,30.12,29.85,14,3,0,0.00
2013-9-5,64.5,54.7,41.8,57.0,49.2,39.0,97,83,59,29.88,29.83,14,3,0,0.00
2013-9-6,55.7,46.2,36.3,50.0,43.5,35.0,100,91,76,29.89,29.83,6,2,0,0.21
2013-9-7,55.2,50.9,45.5,54.0,48.7,44.0,97,92,83,29.86,29.69,8,4,0,0.50
2013-9-8,59.6,51.6,44.8,54.0,48.4,43.0,96,89,75,29.91,29.83,9,2,0,0.09
2013-9-9,65.8,52.9,44.7,56.0,49.3,44.0,100,88,65,30.13,29.90,13,2,0,0.07
2013-9-10,63.9,53.0,46.6,54.0,49.5,44.0,94,88,71,30.20,30.13,14,6,0,0.00
2013-9-11,61.3,56.5,53.4,60.0,54.8,51.0,97,94,91,30.20,30.03,9,2,0,0.13
2013-9-12,60.5,56.9,53.5,60.0,55.6,52.0,97,95,92,30.04,29.83,13,4,0,0.50
2013-9-13,57.7,52.0,47.2,53.0,47.7,44.0,96,86,69,30.04,29.96,8,2,0,0.00
2013-9-14,62.1,50.9,40.3,52.0,46.5,39.0,98,86,66,30.03,29.88,12,2,0,0.01
2013-9-15,57.4,51.3,42.5,57.0,48.9,41.0,97,91,72,29.87,29.20,25,11,0,1.27
2013-9-16,53.9,47.1,42.7,51.0,45.3,41.0,96,93,86,29.34,29.25,20,8,0,0.28
2013-9-17,53.8,49.2,44.4,49.0,46.2,43.0,95,89,83,29.37,29.27,14,6,0,0.02
2013-9-18,54.7,48.7,42.9,51.0,46.8,42.0,97,93,81,29.70,29.37,12,4,0,0.13
2013-9-19,56.5,51.4,46.7,56.0,50.3,45.0,99,96,93,29.75,29.44,11,3,0,0.62
2013-9-20,59.5,53.6,46.0,53.0,50.5,45.0,98,89,74,29.98,29.76,15,5,0,0.02
2013-9-21,60.6,57.0,52.8,59.0,55.0,50.0,96,93,87,30.07,29.98,12,4,0,0.00
2013-9-22,67.7,60.9,57.8,61.0,57.9,56.0,95,90,76,30.24,30.07,13,4,0,0.01
2013-9-23,63.5,59.4,55.7,61.0,57.8,54.0,97,94,90,30.23,30.06,8,2,0,0.00
2013-9-24,59.6,57.8,56.8,59.0,56.8,56.0,98,97,95,30.05,29.89,7,1,0,0.06
2013-9-25,58.2,55.5,50.1,57.0,53.8,47.0,98,94,83,29.98,29.84,14,4,0,0.02
2013-9-26,57.5,52.4,47.2,51.0,48.8,45.0,96,88,78,30.05,29.99,8,3,0,0.02
2013-9-27,59.2,55.1,52.2,58.0,54.2,51.0,98,97,94,30.00,29.87,5,1,0,0.02
2013-9-28,69.7,58.0,48.2,60.0,54.6,47.0,98,89,69,29.87,29.77,7,2,0,0.00
2013-9-29,65.7,55.0,47.7,55.0,49.8,46.0,95,84,65,29.85,29.79,13,5,0,0.00
2013-9-30,63.9,54.0,47.3,54.0,49.2,46.0,94,84,70,29.82,29.72,11,5,0,0.01
2013-10-1,60.7,53.7,47.9,52.0,49.2,45.0,95,85,68,29.81,29.73,12,5,0,0.11
2013-10-2,58.7,55.5,52.2,58.0,53.9,51.0,97,94,89,29.75,29.65,13,3,0,0.55
2013-10-3,64.1,61.6,58.4,63.0,60.5,58.0,98,96,92,29.65,29.47,8,1,0,1.10
2013-10-4,63.1,58.3,54.6,59.0,56.9,53.0,98,95,84,29.78,29.47,11,4,0,0.11
2013-10-5,60.3,56.1,51.9,56.0,53.5,51.0,96,91,81,30.03,29.79,13,4,0,0.03
2013-10-6,62.8,59.0,56.1,61.0,57.1,55.0,96,93,88,30.04,30.00,16,5,0,0.05
2013-10-7,64.3,60.6,58.2,60.0,58.5,57.0,97,93,86,30.02,29.93,17,7,0,0.17
2013-10-8,59.1,55.5,51.7,58.0,53.1,49.0,97,91,83,30.14,29.93,21,6,0,0.02
2013-10-9,52.3,48.8,41.9,50.0,44.2,36.0,95,84,70,30.14,29.94,26,9,0,0.09
2013-10-10,57.4,45.5,37.3,42.0,37.7,35.0,91,75,54,30.38,30.14,13,3,0,0.00
2013-10-11,52.1,47.2,40.2,45.0,42.2,38.0,95,83,75,30.45,30.42,6,3,0,0.00
2013-10-12,59.0,50.5,44.1,49.0,45.5,42.0,92,83,66,30.42,30.20,14,5,0,0.00
2013-10-13,55.5,50.0,43.5,49.0,46.3,42.0,94,87,77,30.21,29.98,10,4,0,0.00
2013-10-14,58.3,51.0,47.3,53.0,48.6,46.0,98,91,77,29.98,29.87,10,4,0,0.02
2013-10-15,56.9,49.3,42.2,50.0,46.2,41.0,96,89,78,29.93,29.86,12,2,0,0.00
2013-10-16,51.3,45.5,38.6,49.0,44.4,38.0,100,95,90,29.91,29.54,9,3,0,0.42
2013-10-17,54.9,49.7,45.3,54.0,48.9,45.0,98,97,94,29.90,29.60,14,2,0,0.28
2013-10-18,53.4,50.0,47.3,53.0,49.4,47.0,98,97,97,29.92,29.58,9,3,0,0.57
2013-10-19,57.8,54.5,52.6,57.0,53.9,52.0,99,98,97,29.58,29.37,6,1,0,0.72
2013-10-20,57.4,53.7,50.7,56.0,52.9,50.0,98,97,93,29.41,29.31,11,2,0,0.35
2013-10-21,55.8,53.4,51.9,54.0,52.2,51.0,98,96,92,29.45,29.18,11,3,0,0.63
2013-10-22,59.1,57.4,52.8,58.0,55.8,52.0,99,94,87,29.18,29.01,12,4,0,0.39
2013-10-23,57.2,52.6,46.7,55.0,49.4,42.0,96,89,67,29.54,28.93,24,7,0,0.06
2013-10-24,56.1,49.0,43.9,49.0,45.7,41.0,94,88,73,29.82,29.55,8,3,0,0.02
2013-10-25,56.5,50.7,47.1,54.0,48.9,45.0,97,94,91,29.75,29.25,14,5,0,0.92
2013-10-26,54.6,51.7,48.5,53.0,49.4,46.0,96,92,82,29.38,29.08,16,5,0,0.22
2013-10-27,53.4,51.1,49.8,50.0,48.3,46.0,95,90,84,29.08,28.80,20,9,0,0.63
2013-10-28,50.9,48.6,45.0,49.0,46.7,44.0,96,92,85,29.32,28.84,13,5,0,0.44
2013-10-29,51.3,45.8,41.6,48.0,43.5,40.0,95,91,83,29.84,29.33,13,4,0,0.10
2013-10-30,53.8,47.0,36.5,53.0,44.8,35.0,98,92,85,29.86,29.54,23,5,0,0.34
2013-10-31,53.0,49.0,45.7,48.0,45.4,42.0,91,87,80,29.76,29.56,18,8,0,0.07
2013-11-1,51.7,47.3,40.1,45.0,43.1,38.0,94,85,76,29.58,29.50,17,6,0,0.02
2013-11-2,44.8,40.5,34.4,44.0,39.5,33.0,97,96,91,29.49,28.82,26,4,0,0.94
2013-11-3,48.9,42.3,31.5,44.0,39.6,31.0,96,90,77,29.27,28.98,26,7,0,0.13
2013-11-4,50.3,37.3,29.7,44.0,35.1,29.0,98,91,72,29.33,29.18,8,1,0,0.01
2013-11-5,44.9,37.9,29.8,44.0,36.5,29.0,97,95,87,29.27,29.12,14,3,0,0.16
2013-11-6,46.9,43.2,39.2,44.0,41.1,38.0,96,92,87,29.34,29.21,13,4,0,0.50
2013-11-7,49.2,45.6,40.3,45.0,41.9,39.0,95,87,78,29.43,29.33,18,8,0,0.18
2013-11-8,50.2,44.0,37.3,44.0,40.8,36.0,96,88,78,29.50,29.41,12,4,0,0.30
2013-11-9,44.4,38.3,31.8,42.0,36.7,31.0,98,93,87,29.61,29.45,11,2,0,0.04
2013-11-10,47.5,37.7,30.6,42.0,35.7,30.0,97,92,77,30.03,29.62,6,1,0,0.05
2013-11-11,53.8,49.9,43.0,53.0,47.6,42.0,98,92,82,29.99,29.74,13,5,0,0.57
2013-11-12,50.5,46.5,42.9,47.0,42.9,41.0,95,87,74,30.34,29.99,21,8,0,0.20
2013-11-13,50.0,47.6,45.0,48.0,44.2,41.0,94,88,81,30.34,29.79,19,8,0,0.18
2013-11-14,47.2,43.7,40.5,46.0,40.0,37.0,94,87,77,30.44,29.80,27,8,0,0.17
2013-11-15,51.0,48.9,42.1,50.0,46.7,40.0,97,92,85,30.43,30.32,13,4,0,0.04
2013-11-16,52.2,49.8,39.7,51.0,47.4,38.0,97,91,87,30.31,30.19,15,6,0,0.05
2013-11-17,42.7,38.3,31.1,42.0,37.6,30.0,98,97,93,30.31,29.88,4,1,0,0.06
2013-11-18,44.6,38.3,33.6,43.0,33.9,-99.9,98,92,82,29.87,29.73,14,-29,0,0.06
2013-11-19,45.3,37.2,29.2,44.0,34.2,28.0,96,89,77,29.99,29.58,19,4,0,0.24
2013-11-20,46.2,42.1,38.7,45.0,36.7,30.0,95,82,68,29.77,29.40,30,12,0,0.31
2013-11-21,42.9,34.3,26.8,35.0,29.5,25.0,94,83,67,30.11,29.77,13,2,0,0.00
2013-11-22,41.2,28.6,22.1,35.0,23.2,-99.9,97,89,76,30.24,30.11,5,-21,0,0.01
2013-11-23,49.3,38.3,31.9,43.0,36.1,31.0,97,92,79,30.39,30.23,6,1,0,0.00
2013-11-24,38.8,33.1,27.1,38.0,32.0,26.0,98,95,93,30.63,30.39,3,0,0,0.01
2013-11-25,39.6,34.7,28.3,39.0,33.9,27.0,98,97,95,30.67,30.63,1,0,0,0.00
2013-11-26,51.1,47.8,37.9,50.0,46.9,37.0,98,96,94,30.66,30.50,18,4,0,0.03
2013-11-27,52.6,50.4,47.4,51.0,49.2,47.0,100,96,91,30.50,30.45,9,4,0,0.08
2013-11-28,48.6,44.1,38.5,48.0,42.6,37.0,97,94,88,30.55,30.31,11,1,0,0.01
2013-11-29,50.1,44.9,42.5,48.0,41.3,37.0,94,87,77,30.30,30.10,30,12,0,0.13
2013-11-30,48.6,44.0,35.6,47.0,41.5,33.0,96,91,82,30.36,30.26,11,4,0,0.02
2013-12-1,51.6,46.9,42.9,48.0,45.2,41.0,97,94,85,30.52,30.35,8,2,0,0.02
2013-12-2,48.0,46.6,43.9,46.0,43.9,41.0,100,90,81,30.51,30.27,10,4,0,0.00
2013-12-3,49.7,47.1,37.1,48.0,45.3,36.0,95,93,90,30.27,30.06,16,6,0,0.09
2013-12-4,46.0,39.7,33.4,43.0,37.5,32.0,97,91,80,30.26,30.09,21,5,0,0.15
2013-12-5,47.4,39.0,34.1,45.0,35.4,28.0,93,87,69,30.10,29.56,29,15,0,0.39
2013-12-6,39.0,36.6,31.0,34.0,29.7,26.0,89,76,69,30.27,30.11,23,5,0,0.01
2013-12-7,48.8,44.6,34.1,47.0,43.1,33.0,97,94,91,30.15,29.91,11,4,0,0.18
2013-12-8,54.5,51.9,48.3,52.0,50.4,46.0,97,94,90,29.92,29.82,17,8,0,0.54
2013-12-9,54.2,51.5,49.4,52.0,49.1,46.0,95,91,88,30.12,29.91,17,6,0,0.01
2013-12-10,53.6,51.7,49.5,52.0,48.7,45.0,94,89,83,30.13,30.06,17,7,0,0.02
2013-12-11,53.6,49.2,41.9,51.0,46.6,40.0,94,90,84,30.15,29.94,14,4,0,0.00
2013-12-12,55.1,52.8,47.6,54.0,51.5,43.0,97,95,83,29.93,29.83,16,5,0,0.52
2013-12-13,54.0,50.5,43.7,53.0,47.9,39.0,97,91,82,29.83,29.64,17,6,0,0.11
2013-12-14,51.9,47.7,42.4,50.0,44.7,39.0,95,89,83,29.86,29.34,34,10,0,0.57
2013-12-15,51.1,45.7,39.9,48.0,42.6,37.0,95,89,80,29.77,29.46,28,6,0,0.17
2013-12-16,47.5,44.4,40.2,45.0,39.4,36.0,93,83,74,29.91,29.44,19,7,0,0.06
2013-12-17,47.4,44.3,40.7,42.0,39.3,37.0,89,83,77,30.00,29.60,18,7,0,0.00
2013-12-18,52.1,49.0,44.3,50.0,46.3,38.0,95,90,75,29.60,28.66,31,11,0,0.40
2013-12-19,43.3,40.6,37.8,40.0,36.5,35.0,93,85,78,29.44,28.77,32,10,0,0.21
2013-12-20,50.9,45.0,38.8,49.0,42.8,36.0,96,92,86,29.66,29.29,25,11,0,0.90
2013-12-21,48.5,46.2,42.1,44.0,41.4,37.0,90,83,78,29.41,29.20,22,10,0,0.06
2013-12-22,43.5,40.6,36.3,39.0,36.4,34.0,93,85,80,29.46,29.24,23,10,0,0.14
2013-12-23,50.4,43.9,38.9,49.0,40.8,35.0,98,88,82,29.45,28.18,21,8,0,0.17
2013-12-24,50.0,42.1,40.2,46.0,36.5,33.0,93,80,71,28.42,28.17,30,14,0,0.05
2013-12-25,45.3,43.3,40.6,40.0,38.9,36.0,92,84,76,29.00,28.43,25,8,0,0.06
2013-12-26,43.5,41.2,36.8,41.0,38.8,35.0,94,91,82,29.22,28.45,25,5,0,0.03
2013-12-27,48.2,45.4,39.9,44.0,42.2,37.0,94,89,80,28.74,28.07,33,12,0,0.55
2013-12-28,44.7,42.4,40.2,42.0,39.3,37.0,94,88,81,29.44,28.75,25,9,0,0.17
2013-12-29,49.2,43.1,40.5,48.0,40.9,38.0,96,92,86,29.73,29.35,14,5,0,0.62
2013-12-30,49.6,43.2,38.5,49.0,41.9,37.0,96,95,92,29.53,29.25,17,4,0,0.67
2013-12-31,46.3,42.9,36.9,43.0,40.1,35.0,96,89,81,29.49,29.13,19,6,0,0.25
2014-1-1,43.3,40.8,37.1,43.0,39.3,36.0,98,94,88,29.19,28.58,22,4,0,0.87
2014-1-2,45.0,43.7,41.1,43.0,41.8,40.0,97,93,88,29.05,28.69,15,6,0,0.17